Weather History for KPAH - August, 2012

Change the Weather History Date:

Thursday, August 16, 2012

  Actual Average Record
Temperature  
Mean Temperature 84 °F 78 °F  
Max Temperature 97 °F 89 °F 105 °F (2007)
Min Temperature 70 °F 66 °F 48 °F (2004)
Degree Days  
Heating Degree Days 0 0  
Month to date heating degree days 0 0  
Since 1 June heating degree days 7 4  
Since 1 July heating degree days 0 0  
Cooling Degree Days 19 13  
Month to date cooling degree days 247 209  
Year to date cooling degree days 1599 1132  
Since 1 June cooling degree days 1216 960  
Growing Degree Days 33 (Base 50)    
Moisture  
Dew Point 66 °F    
Average Humidity 58    
Maximum Humidity 79    
Minimum Humidity 36    
Precipitation  
Precipitation 1.42 in 0.09 in 1.91 in (1977)
Month to date precipitation 2.62 1.51  
Year to date precipitation 15.99 31.23  
Snow  
Snow 0.00 in 0.00 in - ()
Month to date snowfall 0.0 0.0  
Since 1 June snowfall 0.0 0.0  
Since 1 July snowfall 0.0 0.0  
Snow Depth 0.00 in    
Sea Level Pressure  
Sea Level Pressure 29.92 in    
Wind  
Wind Speed 8 mph (WSW)    
Max Wind Speed 43 mph    
Max Gust Speed 59 mph    
Visibility 8 miles    
Events Fog , Rain , Thunderstorm    
T = Trace of Precipitation, MM = Missing Value Source: NWS Daily Summary

Daily Weather History Graph

Daily Weather History Graph

Search for Another Location

Airport or City:

Trip Planner

Search our weather history database for the weather conditions in past years. The results will help you decide how hot, cold, wet, or windy it might be!

Date:

Astronomy

Aug. 16, 2012 Rise Set
Actual Time 6:13 AM CDT 7:44 PM CDT
Civil Twilight 5:45 AM CDT 8:12 PM CDT
Nautical Twilight 5:12 AM CDT 8:45 PM CDT
Astronomical Twilight 4:37 AM CDT 9:20 PM CDT
Moon 5:11 AM CDT (8/16) 6:55 PM CDT (8/16)
Length of Visible Light 14h 26m
Length of Day
13h 31m
Waning Crescent, 1% of the Moon is Illuminated
Aug 16
Waning Crescent
Aug 17
New
Aug 24
First Quarter
Aug 31
Full
Sep 8
Last Quarter

Hourly Weather History & Observations

Time (CDT) Temp. Heat Index Dew Point Humidity Pressure Visibility Wind Dir Wind Speed Gust Speed Precip Events Conditions
12:53 AM 72.0 °F - 61.0 °F 68% 29.97 in 10.0 mi South 4.6 mph - N/A   Clear
1:53 AM 71.1 °F - 62.1 °F 73% 29.96 in 10.0 mi SSE 6.9 mph - N/A   Clear
2:53 AM 71.1 °F - 62.1 °F 73% 29.96 in 10.0 mi South 6.9 mph - N/A   Clear
3:53 AM 71.1 °F - 62.1 °F 73% 29.96 in 10.0 mi South 6.9 mph - N/A   Clear
4:53 AM 71.1 °F - 63.0 °F 75% 29.96 in 10.0 mi SSW 4.6 mph - N/A   Clear
5:53 AM 71.1 °F - 63.0 °F 75% 29.97 in 10.0 mi Calm Calm - N/A   Clear
6:53 AM 71.1 °F - 64.0 °F 78% 29.97 in 9.0 mi Variable 3.5 mph - N/A   Clear
7:53 AM 75.0 °F - 64.9 °F 71% 29.96 in 9.0 mi SW 8.1 mph - N/A   Clear
8:53 AM 79.0 °F - 66.9 °F 66% 29.97 in 10.0 mi SW 8.1 mph - N/A   Clear
9:53 AM 84.9 °F 87.6 °F 66.9 °F 55% 29.98 in 10.0 mi SW 9.2 mph - N/A   Clear
10:53 AM 88.0 °F 91.4 °F 68.0 °F 51% 29.98 in - WSW 10.4 mph 17.3 mph N/A   Clear
11:53 AM 91.0 °F 94.3 °F 66.9 °F 45% 29.96 in 10.0 mi SW 11.5 mph 18.4 mph N/A   Clear
12:53 PM 93.0 °F 95.0 °F 64.9 °F 39% 29.93 in 10.0 mi WSW 15.0 mph 19.6 mph N/A   Clear
1:53 PM 93.9 °F 97.5 °F 66.9 °F 41% 29.91 in 10.0 mi Variable 5.8 mph 19.6 mph N/A   Clear
2:53 PM 93.9 °F 96.1 °F 64.9 °F 38% 29.85 in 10.0 mi SSW 6.9 mph 19.6 mph N/A   Clear
3:53 PM 95.0 °F 97.0 °F 64.0 °F 36% 29.82 in 10.0 mi SW 11.5 mph 17.3 mph N/A   Partly Cloudy
4:53 PM 93.0 °F 94.6 °F 64.0 °F 38% 29.77 in 10.0 mi South 9.2 mph 16.1 mph N/A   Partly Cloudy
5:53 PM 90.0 °F 92.4 °F 66.0 °F 45% 29.84 in 10.0 mi West 10.4 mph - N/A   Clear
6:26 PM 89.6 °F 92.2 °F 66.2 °F 46% 29.84 in 10.0 mi SW 6.9 mph - N/A Thunderstorm Thunderstorm
6:53 PM 89.1 °F 92.1 °F 66.9 °F 48% 29.80 in 10.0 mi SSW 5.8 mph - N/A Thunderstorm Thunderstorm
7:23 PM 78.8 °F - 69.8 °F 74% 29.94 in 2.0 mi NW 39.1 mph 54.1 mph 0.00 in Rain , Thunderstorm Light Thunderstorms and Rain
7:26 PM 71.6 °F - 69.8 °F 94% 29.93 in 0.8 mi NW 33.4 mph 54.1 mph 0.05 in Rain , Thunderstorm Heavy Thunderstorms and Rain
7:31 PM 69.8 °F - 69.8 °F 100% 29.91 in 0.2 mi NNW 27.6 mph 58.7 mph 0.46 in Fog , Rain , Thunderstorm Heavy Thunderstorms and Rain
7:39 PM 69.8 °F - 69.8 °F 100% 29.89 in 0.8 mi NNW 26.5 mph 42.6 mph 0.74 in Rain , Thunderstorm Heavy Thunderstorms and Rain
7:48 PM 69.8 °F - 69.8 °F 100% 29.89 in 2.0 mi North 15.0 mph 32.2 mph 0.99 in Rain , Thunderstorm Light Thunderstorms and Rain
7:49 PM 71.1 °F - 68.0 °F 90% 29.88 in 2.5 mi North 15.0 mph 29.9 mph 0.99 in Rain , Thunderstorm Light Thunderstorms and Rain
7:53 PM 71.6 °F - 69.8 °F 94% 29.89 in 9.0 mi North 12.7 mph - 0.01 in Rain , Thunderstorm Light Thunderstorms and Rain
7:59 PM 71.6 °F - 69.8 °F 94% 29.89 in 10.0 mi North 12.7 mph - N/A Rain , Thunderstorm Light Thunderstorms and Rain
8:53 PM - - - N/A% 29.94 in - North - - 0.01 in Thunderstorm Thunderstorm
8:58 PM 69.8 °F - - N/A% 29.94 in 10.0 mi ENE 10.4 mph - N/A   Unknown
9:53 PM - - - N/A% 29.95 in - North - - N/A Thunderstorm Thunderstorm
9:58 PM 69.8 °F - - N/A% 29.95 in 10.0 mi SW 3.5 mph - N/A   Unknown
10:53 PM - - - N/A% 29.94 in - North - - N/A   Unknown
11:53 PM - - - N/A% 29.99 in - North - - N/A   Unknown